PulseSat

PulseSat

GSAT0209 (GALILEO 12)

Last updated on Dec. 9, 2018, 12:08 a.m. UTC

1 41174U 15079A   18341.89392336  .00000069  00000-0  00000+0 0  9993
2 41174  54.9300 176.8381 0003202 327.1187  32.9191  1.70473477 18509
UTC
Height (km)
Latitude
Longitude
Inclination
Orbital Period

Next 30 passes for location: Hong Kong

Rise time Rise Azimuth (degrees) Set time Set Azimuth (degrees) Duration Max altitude (degrees)

No matching passes for this satellites

PulseSat

PulseSat is the new satellites software and hardware trackering solution by Pulsely.
Satellite Two Line Element Set source: US Air Force Space Command

Download PulseSat for iOS
© 2017 Pulsely Limited